Weather History for Middleton, WI

Change the Weather History Date:

Monday, February 18, 2013

  Actual Average (KMSN) Record (KMSN)
Temperature  
Mean Temperature 34 °F 24 °F  
Max Temperature 45 °F 32 °F 57 °F (1981)
Min Temperature 23 °F 16 °F -19 °F (1936)
Degree Days  
Heating Degree Days 31 41  
Month to date heating degree days 781  
Since 1 July heating degree days 5094  
Cooling Degree Days 0 0  
Month to date cooling degree days 0  
Year to date cooling degree days 0  
Moisture  
Dew Point 27 °F    
Average Humidity 74    
Maximum Humidity 97    
Minimum Humidity 60    
Precipitation  
Precipitation 0.02 in 0.06 in 0.69 in (1882)
Month to date precipitation 0.87  
Year to date precipitation 2.10  
Snow  
Snow 0.00 in 0.40 in 4.60 in (2000)
Month to date snowfall 7.1  
Since 1 July snowfall 37.6  
Snow Depth -    
Sea Level Pressure  
Sea Level Pressure 29.60 in    
Wind  
Wind Speed 12 mph (SSW)    
Max Wind Speed 25 mph    
Max Gust Speed 32 mph    
Visibility 9 miles    
Events      
T = Trace of Precipitation, MM = Missing Value Source: NWS Daily Summary

Daily Weather History Graph

Daily Weather History Graph

Search for Another Location

Airport:

Trip Planner

Search our weather history database for the weather conditions in past years. The results will help you decide how hot, cold, wet, or windy it might be!

Date:

Astronomy

Feb. 18, 2013 Rise Set
Actual Time 6:51 AM CST 5:33 PM CST
Civil Twilight 6:22 AM CST 6:02 PM CST
Nautical Twilight 5:48 AM CST 6:35 PM CST
Astronomical Twilight 5:16 AM CST 7:08 PM CST
Moon 11:14 AM CST (2/18) 1:35 AM CST (2/18)
Length of Visible Light 11h 40m
Length of Day
10h 42m
First Quarter, 58% of the Moon is Illuminated
Feb 18
First Quarter
Feb 25
Full
Mar 4
Last Quarter
Mar 11
New
Mar 19
First Quarter

Hourly Weather History & Observations

Time (CST) Temp. Windchill Dew Point Humidity Pressure Visibility Wind Dir Wind Speed Gust Speed Precip Events Conditions
12:15 AM 29.3 °F 19.1 °F 19.6 °F 67% 29.87 in 10.0 mi SSE 12.7 mph - N/A   Clear
12:55 AM 30.2 °F 20.2 °F 19.9 °F 66% 29.85 in 10.0 mi SSE 12.7 mph 18.4 mph N/A   Clear
1:15 AM 30.2 °F 19.3 °F 19.9 °F 66% 29.83 in 10.0 mi SSE 15.0 mph 20.7 mph N/A   Clear
1:35 AM 30.2 °F 20.2 °F 19.9 °F 66% 29.83 in 10.0 mi SSE 12.7 mph 16.1 mph N/A   Clear
1:55 AM 30.0 °F 19.5 °F 20.1 °F 67% 29.81 in 10.0 mi SSE 13.8 mph - N/A   Clear
2:15 AM 30.2 °F 20.2 °F 20.3 °F 67% 29.79 in 10.0 mi SSE 12.7 mph 21.9 mph N/A   Clear
2:35 AM 30.0 °F 19.5 °F 20.3 °F 67% 29.79 in 10.0 mi SSE 13.8 mph 20.7 mph N/A   Clear
2:55 AM 30.0 °F 20.0 °F 20.7 °F 68% 29.76 in 10.0 mi SSE 12.7 mph - N/A   Clear
3:15 AM 30.2 °F 20.2 °F 20.7 °F 68% 29.75 in 10.0 mi SSE 12.7 mph 18.4 mph N/A   Clear
3:35 AM 30.2 °F 20.2 °F 20.8 °F 68% 29.73 in 10.0 mi SSE 12.7 mph 18.4 mph N/A   Clear
3:55 AM 30.9 °F 22.8 °F 21.0 °F 67% 29.72 in 10.0 mi SSE 9.2 mph 23.0 mph N/A   Clear
4:15 AM 30.9 °F 22.2 °F 21.2 °F 67% 29.71 in 10.0 mi SSE 10.4 mph - N/A   Clear
4:35 AM 31.1 °F 21.9 °F 21.6 °F 68% 29.71 in 10.0 mi SSE 11.5 mph 18.4 mph N/A   Clear
4:55 AM 31.1 °F 21.9 °F 21.7 °F 68% 29.70 in 10.0 mi South 11.5 mph 19.6 mph N/A   Clear
5:15 AM 31.3 °F 22.1 °F 21.9 °F 68% 29.69 in 10.0 mi South 11.5 mph 17.3 mph N/A   Clear
5:35 AM 31.1 °F 21.4 °F 21.9 °F 69% 29.68 in 10.0 mi South 12.7 mph - N/A   Clear
5:55 AM 30.9 °F 22.2 °F 22.1 °F 70% 29.68 in 10.0 mi South 10.4 mph - N/A   Clear
6:15 AM 30.7 °F 23.3 °F 22.1 °F 70% 29.67 in 10.0 mi South 8.1 mph - N/A   Clear
6:35 AM 30.4 °F 22.9 °F 22.1 °F 71% 29.67 in 10.0 mi SSE 8.1 mph 16.1 mph N/A   Clear
6:55 AM 30.7 °F 23.3 °F 22.5 °F 71% 29.66 in 10.0 mi SSE 8.1 mph - N/A   Clear
7:15 AM 30.7 °F 23.3 °F 22.6 °F 72% 29.66 in 10.0 mi SSE 8.1 mph - N/A   Clear
7:35 AM 31.1 °F 23.1 °F 23.0 °F 72% 29.65 in 10.0 mi South 9.2 mph - N/A   Clear
7:55 AM 31.8 °F 23.3 °F 23.4 °F 71% 29.65 in 10.0 mi South 10.4 mph - N/A   Clear
8:15 AM 32.0 °F 24.8 °F 23.9 °F 72% 29.65 in 10.0 mi South 8.1 mph - N/A   Clear
8:35 AM 32.9 °F 26.7 °F 24.3 °F 71% 29.64 in 10.0 mi South 6.9 mph - N/A   Clear
8:55 AM 33.4 °F 26.6 °F 24.6 °F 70% 29.63 in 10.0 mi South 8.1 mph - N/A   Clear
9:15 AM 33.8 °F 25.3 °F 25.2 °F 71% 29.62 in 10.0 mi South 11.5 mph - N/A   Clear
9:35 AM 34.9 °F 26.2 °F 25.7 °F 69% 29.61 in 10.0 mi South 12.7 mph 16.1 mph N/A   Clear
9:55 AM 36.0 °F 29.0 °F 26.6 °F 69% 29.61 in 10.0 mi South 9.2 mph - N/A   Clear
10:15 AM 36.5 °F 30.3 °F 27.0 °F 68% 29.61 in 10.0 mi South 8.1 mph - N/A   Clear
10:35 AM 38.1 °F 31.2 °F 27.9 °F 67% 29.60 in 10.0 mi South 10.4 mph - N/A   Clear
10:55 AM 39.2 °F 31.6 °F 28.4 °F 65% 29.59 in 10.0 mi South 12.7 mph - N/A   Clear
11:15 AM 40.1 °F 34.1 °F 29.1 °F 65% 29.58 in 10.0 mi SSW 9.2 mph - N/A   Clear
11:35 AM 40.8 °F 35.0 °F 29.7 °F 64% 29.57 in 10.0 mi South 9.2 mph - N/A   Clear
11:55 AM 41.9 °F 36.9 °F 30.0 °F 63% 29.56 in 10.0 mi South 8.1 mph - N/A   Clear
12:15 PM 42.4 °F 38.1 °F 30.6 °F 63% 29.55 in 10.0 mi South 6.9 mph - N/A   Clear
12:35 PM 43.7 °F 37.7 °F 30.9 °F 61% 29.54 in 10.0 mi SSW 11.5 mph 17.3 mph N/A   Clear
12:55 PM 43.3 °F 37.2 °F 31.1 °F 62% 29.53 in 10.0 mi SSW 11.5 mph - N/A   Clear
1:15 PM 44.4 °F 38.2 °F 31.8 °F 61% 29.52 in 10.0 mi SSW 12.7 mph 18.4 mph N/A   Clear
1:35 PM 44.8 °F 39.0 °F 32.0 °F 61% 29.51 in 10.0 mi South 11.5 mph - N/A   Clear
1:55 PM 45.3 °F 40.1 °F 32.0 °F 60% 29.52 in 10.0 mi SSW 10.4 mph - N/A   Clear
2:15 PM 44.2 °F 39.7 °F 32.2 °F 63% 29.52 in 10.0 mi SSW 8.1 mph - N/A   Mostly Cloudy
2:35 PM 44.2 °F 41.0 °F 32.4 °F 63% 29.51 in 10.0 mi South 5.8 mph - N/A   Overcast
2:55 PM 44.1 °F 40.1 °F 32.9 °F 65% 29.49 in 10.0 mi South 6.9 mph - N/A   Overcast
3:15 PM 44.8 °F 42.4 °F 33.1 °F 64% 29.49 in 10.0 mi SSW 4.6 mph - N/A   Overcast
3:35 PM 43.9 °F 42.3 °F 33.8 °F 68% 29.49 in 10.0 mi WSW 3.5 mph - N/A   Overcast
3:55 PM 43.7 °F - 33.8 °F 68% 29.48 in 10.0 mi Calm Calm - N/A   Overcast
4:15 PM 43.2 °F 40.5 °F 34.7 °F 72% 29.48 in 10.0 mi SW 4.6 mph - N/A   Overcast
4:35 PM 41.0 °F 39.0 °F 34.2 °F 77% 29.48 in 10.0 mi West 3.5 mph - N/A   Overcast
4:55 PM 40.1 °F 36.1 °F 35.1 °F 82% 29.48 in 10.0 mi WNW 5.8 mph - N/A   Overcast
5:35 PM 39.4 °F 32.7 °F 33.8 °F 80% 29.48 in 7.0 mi WNW 10.4 mph - N/A   Overcast
5:55 PM 38.8 °F 32.1 °F 33.4 °F 81% 29.48 in 10.0 mi WNW 10.4 mph - N/A   Overcast
6:15 PM 37.9 °F 30.5 °F 33.3 °F 83% 29.48 in 7.0 mi NW 11.5 mph - N/A   Overcast
6:35 PM 36.3 °F 28.9 °F 33.8 °F 91% 29.48 in 7.0 mi NW 10.4 mph - N/A   Overcast
6:55 PM 35.4 °F 29.0 °F 33.8 °F 94% 29.48 in 4.0 mi WNW 8.1 mph - N/A   Overcast
7:15 PM 34.9 °F 27.7 °F 33.8 °F 96% 29.48 in 3.0 mi WNW 9.2 mph - 0.01 in   Overcast
7:35 PM 34.7 °F 28.1 °F 33.8 °F 97% 29.48 in 2.5 mi WNW 8.1 mph - 0.02 in   Overcast
7:55 PM 34.7 °F 28.1 °F 33.6 °F 96% 29.47 in 3.0 mi WNW 8.1 mph - 0.02 in   Overcast
8:15 PM 34.7 °F 26.9 °F 33.6 °F 96% 29.47 in 3.0 mi WNW 10.4 mph - N/A   Overcast
8:35 PM 34.7 °F 25.5 °F 33.4 °F 95% 29.47 in 2.5 mi WNW 13.8 mph 19.6 mph N/A   Overcast
8:55 PM 33.6 °F 21.6 °F 32.2 °F 94% 29.48 in 4.0 mi WNW 21.9 mph 27.6 mph N/A   Overcast
9:15 PM 32.9 °F 22.4 °F 30.9 °F 92% 29.49 in 10.0 mi WNW 16.1 mph 23.0 mph N/A   Overcast
9:35 PM 32.0 °F 20.1 °F 29.3 °F 90% 29.49 in 10.0 mi WNW 19.6 mph 25.3 mph N/A   Overcast
9:55 PM 30.9 °F 18.4 °F 27.5 °F 87% 29.49 in 10.0 mi WNW 20.7 mph 24.2 mph N/A   Overcast
10:15 PM 29.1 °F 16.7 °F 26.1 °F 88% 29.51 in 7.0 mi West 18.4 mph 21.9 mph N/A   Overcast
10:35 PM 27.7 °F 13.1 °F 23.7 °F 85% 29.52 in 10.0 mi West 24.2 mph - N/A   Overcast
10:55 PM 26.2 °F 10.9 °F 22.5 °F 86% 29.53 in 10.0 mi West 25.3 mph 32.2 mph N/A   Overcast
11:15 PM 24.8 °F 9.6 °F 19.9 °F 82% 29.55 in 10.0 mi West 23.0 mph 29.9 mph N/A   Overcast
11:35 PM 23.9 °F 9.1 °F 18.5 °F 80% 29.55 in 10.0 mi WNW 20.7 mph 28.8 mph N/A   Overcast
11:55 PM 23.7 °F 9.3 °F 18.5 °F 80% 29.56 in 10.0 mi West 19.6 mph 23.0 mph N/A   Overcast